Orbital Elements at Epoch 2459000.5 (2020-May-31.0) TDB
Reference: JPL 20 (heliocentric ecliptic J2000)
Element | Value | Uncertainty (1-sigma) | Units |
e | .1226049169628643 | 3.9234e-08 | |
a | 2.237763166909824 | 8.2024e-09 | au |
q | 1.963402399648289 | 8.9714e-08 | au |
i | 5.360495582305879 | 4.0765e-06 | deg |
node | 149.4528426538417 | 3.776e-05 | deg |
peri | 206.7972218899488 | 4.0977e-05 | deg |
M | 66.49236425501466 | 1.4121e-05 | deg |
tp | 2458774.666230703829 (2019-Oct-18.16623070) | 4.8225e-05 | TDB |
period | 1222.699145345705 3.35 | 6.7226e-06 1.841e-08 | d yr |
n | .2944305648452988 | 1.6188e-09 | deg/d |
Q | 2.512123934171359 | 9.208e-09 | au |
|
| | Orbit Determination Parameters
Additional Information
|